Location: Gradaro
(45.0833°N, 10.8833°E)
Time: 00:33:56
(UTC+00:00)

Cosmos 2263 Rocket - Pass Details

Date: 25 April 2021
Orbit: 824 x 848 km, 71.0° (Epoch: 15 May)

Event Time Altitude Azimuth Distance (km) Brightness Sun altitude
Exits shadow 19:42:08 20° 111° (ESE) 1,821 3.4 -14.3°
Maximum altitude 19:42:49 20° 100° (E) 1,800 3.4 -14.4°
Drops below altitude 10° 19:46:48 10° 54° (NE) 2,432 4.4 -15.0°
Sets 19:49:48 0° 39° (NE) 3,373 5.3 -15.4°
